Regional Weather Roundup
Issued by NWS Charleston, SC

Current Version | Previous Version | Graphics & Text | Print | Product List | Glossary On
Versions: 1 2 3 4 5 6 7 8 9 10 11 12 13 14 15 16 17 18 19 20 21 22 23 24 25 26 27 28 29 30 31 32 33 34 35 36 37 38 39 40 41 42 43 44 45 46 47 48 49 50
000
ASUS42 KCHS 290827
RWRCHS

REGIONAL WEATHER ROUNDUP
NATIONAL WEATHER SERVICE CHARLESTON SC
400 AM EDT SAT AUG 29 2015

NOTE: "FAIR" INDICATES FEW OR NO CLOUDS BELOW 12,000 FEET WITH NO
SIGNIFICANT WEATHER AND/OR OBSTRUCTIONS TO VISIBILITY.

NOT ALL STATIONS ARE QUALITY CONTROLLED BY THE NATIONAL
WEATHER SERVICE. USE DATA WITH CAUTION...ESPECIALLY
DEWPOINT OBSERVATIONS.

SCZ027-030-031-034>040-042>050-290900-
...SOUTHEAST SOUTH CAROLINA...

CITY           SKY/WX    TMP DP  RH WIND       PRES   REMARKS
N CHARLESTON   PTCLDY    71  68  90 N6        30.11F
WATERFRONT PRK   N/A     77  73  87 N7        30.08F
MOUNT PLEASANT FAIR      72  70  94 N3        30.11S
JOHNS ISLAND   FAIR      73  72  94 CALM      30.11S
PINOPOLIS        N/A     77  70  78 NE12      30.05S
MONCKS CORNER  FAIR      72  66  83 CALM      30.13R
SUMMERVILLE    FAIR      68  68 100 CALM      30.13S
BEAUFORT MCAS  PTCLDY    73  70  90 NE5       30.11F
BEAUFORT ARPT  FAIR      73  72  94 NE5       30.10S
HILTON HEAD IS MOCLDY    75  73  94 N6        30.11S
WALTERBORO     SUNNY     72  68  88 N3        30.13S
ALLENDALE      FAIR      72  68  88 CALM      30.13R

...SOUTHERN MIDLANDS AND PEE DEE...

CITY           SKY/WX    TMP DP  RH WIND       PRES   REMARKS
GEORGETOWN     NOT AVBL
KINGSTREE      NOT AVBL
ORANGEBURG     PTCLDY    67  63  87 CALM      30.14F
BARNWELL       FAIR      70  66  88 CALM      30.15S
AIKEN          FAIR      64  59  82 NE3       30.19S
MANNING        FAIR      64  63  94 CALM      30.14F
COLUMBIA       PTCLDY    65  60  84 CALM      30.15F
SUMTER         CLEAR     66  60  82 CALM      30.14S
FLORENCE       CLEAR     66  62  87 NE5       30.15S
MYRTLE BEACH   PTCLDY    70  63  78 N6        30.15S
N MYRTLE BEACH CLEAR     69  65  86 NE6       30.13S

$$

GAZ063-065-086>088-099>101-113>116-118-119-134>141-150-290900-
...SOUTHEAST GEORGIA...

CITY           SKY/WX    TMP DP  RH WIND       PRES   REMARKS
SAVANNAH ARPT  MOCLDY    74  71  91 NE8       30.10F
HUNTER AAF     MOCLDY    75  75 100 NE5       30.08S
FORT STEWART   MOCLDY    73  72  94 NE1       30.08S
STATESBORO     PTCLDY    72  32  23 CALM      30.12S
SYLVANIA       SUNNY     73  72  97 E3        30.13S
CLAXTON        NOT AVBL

...CSRA...CENTRAL AND FAR SOUTHEAST GEORGIA...

CITY           SKY/WX    TMP DP  RH WIND       PRES   REMARKS
THOMSON        CLEAR     68  68 100 CALM      30.19S
AUGUSTA-BUSH   PTCLDY    67  66  97 CALM      30.14S
AUGUSTA-DANIEL PTCLDY    73  65  75 E5        30.15F
SWAINSBORO     FAIR     N/A N/A N/A E5        30.13S
VIDALIA        PTCLDY    73  70  88 E7        30.11F
EASTMAN        FAIR      74  74 100 E3        30.14S
HAZLEHURST     FAIR      75  75 100 NE3       30.10S
ALMA           CLOUDY    74  73  97 CALM      30.09S
WAYCROSS       CLOUDY    77  77  99 CALM      30.09R
JESUP          FAIR      77  75  94 NE3       30.10R
BAXLEY         FAIR      75  73  94 NE6       30.09S
BRUNSWICK      MOCLDY    72  72 100 CALM      30.08S
SAINT SIMONS   MOCLDY    80  73  79 E3        30.07S

$$

SCZ027-028-034-036>038-045-046-048>050-GAZ119-141-290900-
...LAKE AND SUPPLEMENTAL COASTAL OBSERVATIONS...

STATION/POSITION TIME  TEMP    WIND        PRES    WAVE   SWELL
                       AIR SEA DIR/SP/G            HT/PER HT/PER/DIR
                 (UTC) (F)     (DEG/KT/KT) (MB)    (FT/S) (FT/S/D)
UPR LAKE MARION  NOT AVBL
WINYAH BAY       0645   74     350/  5     1019.0
LAKE MURRAY      0700   71      CALM  /  1 1021.0S
ACE BASIN NERRS  NOT AVBL
FORT PULASKI     NOT AVBL
SAPELO ISLAND    NOT AVBL

$$

ANZ835-935-AMZ111-154-330-350-352-354-370-450-454-472-290900-
...C-MAN AND BUOY OBSERVATIONS...

STATION/POSITION TIME  TEMP    WIND        PRES    WAVE   SWELL
                       AIR SEA DIR/SP/G            HT/PER HT/PER/DIR
                 (UTC) (F)     (DEG/KT/KT) (MB)    (FT/S) (FT/S/D)
BUOY 41004       0750   80 84   50/ 16/ 17 1018.4F   5/ 6   2/11
BUOY 41008       0750   83 85   80/  8/ 10 1018.6F   3/ 6   3/ 60/ 6
FOLLY BEACH CMAN 0800   78      20/  9/ 12 1019.6F
CAPERS NEARSHORE 0708   81      60/ 14/ 16 1019.8F
FRIPP NEARSHORE  0700   81      60/ 14/ 17 1018.9F


STATION/POSITION TIME  TEMP    WIND        PRES    WAVE   SWELL
                       AIR SEA DIR/SP/G            HT/PER HT/PER/DIR
                 (UTC) (F)     (DEG/KT/KT) (MB)    (FT/S) (FT/S/D)
5E ST. MARYS GA  0721      86                N/A     3/11   2/100/11
FRYING PAN BUOY  0750   80 81   50/ 17/ 21 1019.2F   5/ 6   2/100/11
BUOY 41025       0750   76 82   20/ 19/ 23 1019.7F   4/11   3/ 90/11
CAPE LOOKOUT NC  0800   76      20/ 12/ 14 1019.5F
BUOY 41002       0750   82 84  220/ 12/ 14 1019.1F   5/11   5/ 70/11
BUOY 41010       0720   83 85  130/ 12/ 14 1018.0F
ST AUGUSTINE FL  0800   82 85  150/  6/  7 1018.5R


$$


USA.gov is the U.S. government's official web portal to all federal, state and local government web resources and services.